Regional Weather Roundup
Issued by NWS

Home | Current Version | Previous Version | Graphics & Text | Print | Product List | Glossary On
Versions: 1 2 3 4 5 6 7 8 9 10 11 12 13 14 15 16 17 18 19 20 21 22 23 24 25 26 27 28 29 30 31 32 33 34 35 36 37 38 39 40 41 42 43 44 45 46 47 48 49 50
000
ASUS43 KOAX 231202
RWRNE

WEATHER ROUNDUP FOR NEBRASKA
NATIONAL WEATHER SERVICE OMAHA NE
600 AM CST SUN NOV 23 2014

NOTES: SATELLITE DATA IS BEING USED TO AUGMENT CLOUD COVER ABOVE
       12000 FEET.
       "FAIR" INDICATES FEW OR NO CLOUDS BELOW 12,000 FEET WITH NO
       SIGNIFICANT WEATHER AND/OR OBSTRUCTIONS TO VISIBILITY.

  * THESE STATIONS DO NOT REPORT WEATHER SUCH AS RAIN...SNOW OR FOG.

NEZ001>004-019>022-054>056-231300-
NEBRASKA PANHANDLE

CITY           SKY/WX    TMP DP  RH WIND       PRES   REMARKS
SCOTTSBLUFF    PTCLDY    28  23  81 W12       29.70S WCI  18
6HR MIN TEMP:  28; 6HR MAX TEMP:  46;

ALLIANCE       CLOUDY    36  18  48 NW24G32   29.64R WCI  24
6HR MIN TEMP:  32; 6HR MAX TEMP:  42;

CHADRON        PTCLDY    32  23  69 W16       29.69R WCI  21
6HR MIN TEMP:  32; 6HR MAX TEMP:  41;

KIMBALL        MOCLDY    31  22  67 NW12      29.68R WCI  22
SIDNEY         CLOUDY    36  18  48 N21G29    29.66F WCI  25
6HR MIN TEMP:  36; 6HR MAX TEMP:  46;

$$

NEZ057>060-069>072-079>082-231300-
SOUTHWEST NEBRASKA

CITY           SKY/WX    TMP DP  RH WIND       PRES   REMARKS
NORTH PLATTE   CLOUDY    43  27  53 N22G32    29.56S
6HR MIN TEMP:  31; 6HR MAX TEMP:  45;

IMPERIAL       CLOUDY    42  25  50 NW22G29   29.60R
6HR MIN TEMP:  40; 6HR MAX TEMP:  51;

LEXINGTON      CLOUDY    45  34  66 N21G29    29.53S
MCCOOK         CLOUDY    47  31  53 N25G32    29.54R
6HR MIN TEMP:  42; 6HR MAX TEMP:  54;

$$

NEZ005>010-023>029-035>040-094-231300-
NORTH CENTRAL NEBRASKA

CITY           SKY/WX    TMP DP  RH WIND       PRES   REMARKS
VALENTINE      CLOUDY    41  30  65 NW21G30   29.57R
6HR MIN TEMP:  38; 6HR MAX TEMP:  43;

AINSWORTH      CLOUDY    39  33  79 NW12      29.57R WCI  32
BROKEN BOW     CLOUDY    43  34  70 N29G38    29.53R
6HR MIN TEMP:  40; 6HR MAX TEMP:  55;

ORD            CLOUDY    44  34  67 N21G26    29.52R
6HR MIN TEMP:  33; 6HR MAX TEMP:  45;

$$

NEZ041-046>049-061>064-073>077-083>087-231300-
SOUTH CENTRAL NEBRASKA

CITY           SKY/WX    TMP DP  RH WIND       PRES   REMARKS
AURORA         FOG       45  45 100 CALM      29.44F VSB 1
HASTINGS       FOG       41  39  93 S3        29.45R VSB 1/4
6HR MIN TEMP:  41; 6HR MAX TEMP:  54;

HEBRON         CLOUDY    51  48  87 S5        29.45F
HOLDREGE       CLOUDY    44  35  70 NW14G21   29.49R
KEARNEY *      CLOUDY    43  37  81 W20G25    29.50R
YORK           CLOUDY    48  46  93 S5        29.45F
$$

NEZ011>018-030>034-042>045-231300-
NORTHEAST NEBRASKA

CITY           SKY/WX    TMP DP  RH WIND       PRES   REMARKS
NORFOLK        CLOUDY    48  47  96 SW9       29.45R FOG
6HR MIN TEMP:  47; 6HR MAX TEMP:  52;

BLAIR          MOCLDY    52  49  89 S9        29.45S
COLUMBUS *     CLOUDY    48  45  87 SW6       29.47R
FREMONT        CLOUDY    53  50  91 S8        29.45F
TEKAMAH        CLOUDY    48  46  93 S7        29.45S
6HR MIN TEMP:  48; 6HR MAX TEMP:  54;

WAYNE          CLOUDY    45  45  98 S6        29.44S FOG
$$

NEZ050>053-065>068-078-088>093-231300-
SOUTHEAST NEBRASKA

CITY           SKY/WX    TMP DP  RH WIND       PRES   REMARKS
LINCOLN        CLOUDY    54  49  83 S12       29.46S
6HR MIN TEMP:  53; 6HR MAX TEMP:  57;

OMAHA EPPLEY   CLOUDY    52  50  93 S12       29.47F
6HR MIN TEMP:  52; 6HR MAX TEMP:  55; 6HR PCP: TRACE;

FALLS CITY     CLOUDY    54  52  93 S6        29.51R
6HR MIN TEMP:  53; 6HR MAX TEMP:  55; 6HR PCP:  0.01;

$$

NEZ044-045-051>053-067-231300-
OMAHA AREA

CITY           SKY/WX    TMP DP  RH WIND       PRES   REMARKS
OMAHA EPPLEY   CLOUDY    52  50  93 S12       29.47F
6HR MIN TEMP:  52; 6HR MAX TEMP:  55; 6HR PCP: TRACE;

BLAIR          MOCLDY    52  49  89 S9        29.45S
FREMONT        CLOUDY    53  50  91 S8        29.45F
OFFUTT AFB     CLOUDY    52  50  95 SE9       29.47F
$$


USA.gov is the U.S. government's official web portal to all federal, state and local government web resources and services.